QPF
0.00 0.00 0.01 0.00 0.00 0.00 0.00 0.00 0.00 0.00 0.00 0.00 0.00 0.00 0.00 0.00 0.00 0.00 0.00 0.00 0.00 0.00 0.00 0.00 0.00 0.00 0.00 0.00 0.00 0.00 0.00 0.00 0.01 0.01 0.02 0.03 0.05 0.04 0.02 0.01 0.00 0.01 0.01
0.00 0.00 0.01 0.00 0.00 0.00 0.00 0.00 0.00 0.00 0.00 0.00 0.00 0.00 0.00 0.00 0.00 0.00 0.00 0.01 0.01 0.00 0.00 0.00 0.00 0.00 0.00 0.00 0.00 0.00 0.00 0.00 0.01 0.01 0.02 0.03 0.06 0.06 0.04 0.01 0.00 0.00 0.01
0.00 0.00 0.00 0.00 0.00 0.00 0.00 0.00 0.00 0.00 0.00 0.00 0.00 0.00 0.00 0.00 0.00 0.00 0.00 0.00 0.00 0.00 0.00 0.00 0.00 0.00 0.00 0.00 0.00 0.00 0.00 0.00 0.01 0.01 0.00 0.01 0.03 0.04 0.03 0.01 0.00 0.00 0.00
0.00 0.00 0.00 0.00 0.00 0.00 0.00 0.00 0.00 0.00 0.00 0.00 0.00 0.00 0.00 0.00 0.00 0.00 0.00 0.00 0.00 0.00 0.00 0.00 0.00 0.00 0.00 0.00 0.00 0.00 0.00 0.01 0.01 0.01 0.00 0.00 0.01 0.01 0.01 0.00 0.00 0.00 0.00
0.00 0.00 0.00 0.00 0.00 0.00 0.00 0.00 0.00 0.00 0.00 0.00 0.00 0.00 0.00 0.00 0.00 0.00 0.00 0.00 0.00 0.00 0.00 0.00 0.00 0.00 0.00 0.00 0.00 0.00 0.01 0.02 0.01 0.01 0.00 0.00 0.00 0.01 0.01 0.00 0.00 0.00 0.00
0.00 0.00 0.00 0.01 0.01 0.00 0.00 0.00 0.00 0.00 0.00 0.00 0.00 0.00 0.00 0.00 0.00 0.00 0.00 0.00 0.00 0.00 0.00 0.00 0.00 0.00 0.00 0.00 0.00 0.01 0.01 0.01 0.01 0.01 0.01 0.00 0.01 0.02 0.01 0.01 0.01 0.00 0.00
0.00 0.00 0.00 0.02 0.01 0.01 0.00 0.00 0.00 0.00 0.00 0.00 0.00 0.00 0.00 0.00 0.00 0.00 0.00 0.00 0.00 0.00 0.00 0.00 0.00 0.00 0.00 0.00 0.00 0.01 0.01 0.01 0.01 0.01 0.00 0.00 0.00 0.02 0.02 0.02 0.02 0.01 0.01
0.00 0.00 0.00 0.01 0.01 0.01 0.01 0.00 0.00 0.00 0.00 0.00 0.00 0.00 0.00 0.00 0.00 0.00 0.00 0.00 0.00 0.00 0.00 0.00 0.00 0.00 0.00 0.00 0.00 0.00 0.02 0.01 0.00 0.00 0.00 0.00 0.01 0.01 0.02 0.02 0.02 0.02 0.01
0.00 0.00 0.00 0.00 0.01 0.01 0.01 0.00 0.00 0.00 0.00 0.00 0.00 0.00 0.00 0.00 0.00 0.00 0.00 0.00 0.00 0.00 0.00 0.00 0.00 0.00 0.00 0.00 0.00 0.00 0.01 0.01 0.00 0.00 0.00 0.00 0.01 0.01 0.01 0.02 0.02 0.01 0.01
0.00 0.00 0.00 0.00 0.00 0.00 0.00 0.00 0.00 0.00 0.00 0.00 0.00 0.00 0.00 0.00 0.00 0.00 0.00 0.00 0.00 0.00 0.01 0.01 0.01 0.00 0.00 0.00 0.00 0.00 0.01 0.01 0.00 0.00 0.00 0.01 0.01 0.01 0.01 0.01 0.01 0.01 0.00
0.00 0.00 0.00 0.00 0.00 0.00 0.00 0.00 0.00 0.00 0.00 0.00 0.00 0.00 0.00 0.00 0.00 0.00 0.00 0.00 0.00 0.01 0.02 0.02 0.02 0.01 0.00 0.00 0.00 0.00 0.00 0.01 0.00 0.00 0.00 0.00 0.01 0.00 0.00 0.00 0.00 0.00 0.00
0.00 0.00 0.00 0.00 0.00 0.00 0.00 0.00 0.00 0.00 0.00 0.00 0.00 0.00 0.00 0.00 0.00 0.00 0.00 0.00 0.00 0.01 0.02 0.03 0.03 0.02 0.01 0.00 0.00 0.00 0.00 0.00 0.00 0.00 0.00 0.01 0.01 0.00 0.00 0.00 0.00 0.00 0.00
0.00 0.00 0.00 0.00 0.00 0.00 0.00 0.00 0.00 0.00 0.00 0.00 0.00 0.00 0.00 0.00 0.00 0.00 0.00 0.00 0.00 0.01 0.02 0.02 0.02 0.02 0.01 0.00 0.00 0.00 0.00 0.00 0.00 0.00 0.00 0.01 0.01 0.00 0.00 0.00 0.00 0.00 0.00
0.00 0.00 0.00 0.00 0.00 0.00 0.00 0.00 0.00 0.00 0.00 0.00 0.00 0.00 0.00 0.00 0.00 0.00 0.00 0.00 0.00 0.01 0.01 0.01 0.01 0.02 0.02 0.01 0.00 0.00 0.00 0.00 0.00 0.00 0.01 0.01 0.02 0.01 0.00 0.00 0.00 0.00 0.00
0.00 0.00 0.00 0.00 0.00 0.00 0.00 0.00 0.00 0.00 0.00 0.00 0.00 0.00 0.00 0.00 0.00 0.00 0.00 0.00 0.01 0.01 0.01 0.01 0.02 0.03 0.02 0.01 0.01 0.01 0.01 0.01 0.01 0.00 0.00 0.01 0.02 0.02 0.01 0.01 0.01 0.00 0.01
0.01 0.00 0.00 0.00 0.00 0.00 0.00 0.00 0.00 0.00 0.00 0.00 0.00 0.00 0.00 0.00 0.00 0.01 0.01 0.02 0.02 0.02 0.02 0.03 0.04 0.04 0.03 0.01 0.01 0.02 0.02 0.02 0.02 0.01 0.01 0.01 0.02 0.03 0.03 0.03 0.03 0.03 0.03
0.01 0.01 0.00 0.00 0.00 0.00 0.00 0.00 0.00 0.00 0.00 0.00 0.00 0.00 0.00 0.00 0.00 0.01 0.01 0.02 0.03 0.04 0.05 0.07 0.08 0.06 0.04 0.04 0.04 0.04 0.04 0.04 0.04 0.03 0.02 0.01 0.02 0.03 0.03 0.03 0.03 0.03 0.03
0.01 0.02 0.01 0.01 0.00 0.00 0.00 0.00 0.00 0.00 0.00 0.00 0.00 0.00 0.00 0.00 0.01 0.01 0.02 0.03 0.05 0.05 0.07 0.09 0.10 0.07 0.04 0.05 0.06 0.07 0.06 0.05 0.05 0.04 0.03 0.03 0.03 0.02 0.02 0.02 0.02 0.02 0.02
0.01 0.02 0.02 0.02 0.02 0.02 0.01 0.01 0.01 0.01 0.01 0.01 0.01 0.02 0.01 0.02 0.04 0.04 0.04 0.05 0.05 0.06 0.08 0.10 0.10 0.06 0.04 0.05 0.06 0.06 0.04 0.04 0.04 0.04 0.03 0.02 0.02 0.02 0.02 0.02 0.02 0.02 0.02
0.02 0.02 0.03 0.03 0.05 0.07 0.08 0.08 0.08 0.07 0.06 0.06 0.05 0.08 0.09 0.09 0.09 0.08 0.08 0.07 0.07 0.07 0.07 0.08 0.07 0.05 0.04 0.04 0.03 0.03 0.03 0.03 0.02 0.02 0.02 0.01 0.01 0.01 0.01 0.01 0.01 0.01 0.01
0.02 0.03 0.04 0.04 0.07 0.14 0.19 0.23 0.24 0.21 0.18 0.16 0.15 0.17 0.20 0.17 0.14 0.13 0.13 0.12 0.11 0.09 0.08 0.07 0.05 0.03 0.02 0.02 0.02 0.02 0.01 0.01 0.01 0.01 0.01 0.01 0.01 0.01 0.00 0.00 0.00 0.00 0.00
0.01 0.02 0.04 0.09 0.14 0.21 0.31 0.32 0.30 0.29 0.29 0.23 0.19 0.20 0.21 0.20 0.19 0.19 0.19 0.19 0.16 0.12 0.08 0.05 0.04 0.02 0.02 0.01 0.01 0.01 0.02 0.01 0.01 0.01 0.01 0.01 0.01 0.00 0.00 0.00 0.00 0.00 0.00
0.01 0.01 0.03 0.08 0.18 0.29 0.36 0.37 0.36 0.37 0.32 0.25 0.21 0.22 0.24 0.27 0.28 0.24 0.24 0.23 0.20 0.14 0.10 0.07 0.04 0.02 0.01 0.01 0.01 0.01 0.02 0.02 0.01 0.01 0.01 0.01 0.01 0.00 0.00 0.00 0.00 0.00 0.00
0.02 0.03 0.04 0.08 0.13 0.19 0.25 0.32 0.36 0.35 0.31 0.29 0.28 0.28 0.29 0.30 0.32 0.29 0.25 0.21 0.19 0.15 0.11 0.07 0.04 0.02 0.01 0.01 0.01 0.01 0.01 0.01 0.00 0.00 0.00 0.00 0.00 0.00 0.00 0.00 0.00 0.00 0.00
0.02 0.04 0.08 0.09 0.12 0.21 0.29 0.36 0.39 0.37 0.34 0.31 0.30 0.30 0.29 0.27 0.27 0.24 0.20 0.17 0.15 0.11 0.06 0.04 0.02 0.01 0.01 0.01 0.01 0.00 0.00 0.00 0.00 0.00 0.00 0.00 0.00 0.00 0.00 0.00 0.00 0.00 0.00
0.05 0.06 0.08 0.09 0.12 0.22 0.35 0.41 0.43 0.39 0.35 0.33 0.34 0.31 0.29 0.26 0.23 0.20 0.17 0.13 0.10 0.07 0.03 0.02 0.01 0.00 0.00 0.00 0.00 0.00 0.00 0.00 0.00 0.00 0.00 0.00 0.00 0.00 0.00 0.00 0.00 0.00 0.00
MSLP
1013.14 1012.90 1012.78 1012.80 1012.94 1013.15 1013.39 1013.63 1013.84 1014.03 1014.22 1014.44 1014.72 1015.06 1015.46 1015.88 1016.29 1016.65 1016.93 1017.13 1017.26 1017.34 1017.42 1017.51 1017.65 1017.82 1018.02 1018.22 1018.40 1018.56 1018.68 1018.76 1018.84 1018.91 1019.00 1019.10 1019.22 1019.35 1019.47 1019.59 1019.70 1019.82 1019.94
1012.75 1012.64 1012.64 1012.76 1012.98 1013.25 1013.53 1013.80 1014.02 1014.23 1014.44 1014.69 1015.00 1015.38 1015.80 1016.24 1016.65 1016.99 1017.25 1017.41 1017.52 1017.58 1017.65 1017.75 1017.88 1018.05 1018.23 1018.39 1018.54 1018.64 1018.72 1018.78 1018.85 1018.94 1019.06 1019.21 1019.37 1019.53 1019.67 1019.79 1019.89 1019.99 1020.09
1012.31 1012.33 1012.45 1012.69 1013.00 1013.36 1013.70 1014.01 1014.27 1014.51 1014.74 1015.02 1015.34 1015.73 1016.16 1016.58 1016.97 1017.27 1017.49 1017.62 1017.70 1017.76 1017.83 1017.93 1018.07 1018.22 1018.38 1018.51 1018.60 1018.66 1018.69 1018.73 1018.79 1018.91 1019.07 1019.27 1019.48 1019.68 1019.84 1019.97 1020.07 1020.15 1020.25
1011.93 1012.06 1012.30 1012.64 1013.06 1013.50 1013.92 1014.28 1014.59 1014.85 1015.11 1015.39 1015.71 1016.09 1016.48 1016.87 1017.21 1017.47 1017.65 1017.75 1017.82 1017.88 1017.96 1018.08 1018.23 1018.39 1018.53 1018.63 1018.68 1018.69 1018.69 1018.70 1018.77 1018.90 1019.10 1019.34 1019.60 1019.83 1020.02 1020.16 1020.26 1020.35 1020.44
1011.67 1011.89 1012.22 1012.67 1013.18 1013.70 1014.18 1014.59 1014.93 1015.21 1015.47 1015.75 1016.05 1016.39 1016.75 1017.09 1017.37 1017.59 1017.74 1017.83 1017.90 1017.98 1018.10 1018.25 1018.43 1018.60 1018.73 1018.81 1018.83 1018.81 1018.78 1018.78 1018.85 1019.00 1019.22 1019.50 1019.78 1020.05 1020.25 1020.40 1020.50 1020.58 1020.68
1011.59 1011.86 1012.26 1012.78 1013.35 1013.92 1014.45 1014.89 1015.25 1015.54 1015.79 1016.05 1016.33 1016.63 1016.94 1017.24 1017.49 1017.67 1017.80 1017.90 1017.99 1018.11 1018.26 1018.46 1018.67 1018.87 1019.01 1019.09 1019.10 1019.06 1019.01 1019.01 1019.07 1019.23 1019.47 1019.76 1020.06 1020.32 1020.53 1020.68 1020.77 1020.85 1020.95
1011.68 1011.98 1012.41 1012.96 1013.56 1014.16 1014.70 1015.15 1015.51 1015.79 1016.03 1016.27 1016.53 1016.81 1017.09 1017.36 1017.59 1017.77 1017.90 1018.01 1018.13 1018.28 1018.48 1018.72 1018.97 1019.19 1019.35 1019.44 1019.45 1019.41 1019.36 1019.35 1019.42 1019.58 1019.82 1020.10 1020.40 1020.66 1020.86 1020.99 1021.07 1021.14 1021.23
1011.90 1012.20 1012.64 1013.19 1013.79 1014.38 1014.91 1015.34 1015.68 1015.95 1016.18 1016.41 1016.66 1016.94 1017.22 1017.49 1017.73 1017.91 1018.06 1018.19 1018.34 1018.52 1018.74 1019.01 1019.28 1019.52 1019.71 1019.81 1019.83 1019.80 1019.76 1019.76 1019.82 1019.98 1020.21 1020.48 1020.76 1021.00 1021.18 1021.29 1021.36 1021.41 1021.49
1012.18 1012.47 1012.90 1013.43 1014.00 1014.56 1015.05 1015.45 1015.77 1016.02 1016.25 1016.49 1016.76 1017.06 1017.37 1017.67 1017.93 1018.14 1018.31 1018.46 1018.61 1018.80 1019.02 1019.28 1019.55 1019.80 1019.99 1020.10 1020.15 1020.14 1020.12 1020.13 1020.20 1020.35 1020.57 1020.82 1021.08 1021.29 1021.45 1021.55 1021.61 1021.65 1021.72
1012.46 1012.75 1013.16 1013.66 1014.19 1014.70 1015.14 1015.50 1015.79 1016.03 1016.27 1016.53 1016.84 1017.18 1017.54 1017.89 1018.19 1018.44 1018.62 1018.78 1018.92 1019.08 1019.27 1019.50 1019.74 1019.97 1020.15 1020.27 1020.33 1020.35 1020.36 1020.39 1020.47 1020.62 1020.82 1021.06 1021.29 1021.49 1021.64 1021.74 1021.79 1021.83 1021.90
1012.67 1012.98 1013.38 1013.86 1014.34 1014.80 1015.20 1015.52 1015.78 1016.02 1016.28 1016.58 1016.93 1017.33 1017.74 1018.14 1018.49 1018.76 1018.96 1019.10 1019.22 1019.33 1019.47 1019.63 1019.82 1020.01 1020.17 1020.29 1020.37 1020.42 1020.45 1020.51 1020.60 1020.75 1020.95 1021.17 1021.38 1021.58 1021.73 1021.83 1021.90 1021.96 1022.03
1012.80 1013.14 1013.56 1014.02 1014.48 1014.90 1015.25 1015.54 1015.79 1016.03 1016.30 1016.62 1017.02 1017.46 1017.93 1018.38 1018.76 1019.06 1019.27 1019.39 1019.47 1019.53 1019.59 1019.69 1019.81 1019.94 1020.08 1020.20 1020.29 1020.36 1020.43 1020.51 1020.62 1020.77 1020.96 1021.16 1021.37 1021.56 1021.72 1021.85 1021.95 1022.05 1022.14
1012.82 1013.22 1013.67 1014.14 1014.59 1014.99 1015.32 1015.59 1015.83 1016.06 1016.34 1016.68 1017.10 1017.57 1018.06 1018.54 1018.95 1019.27 1019.48 1019.59 1019.64 1019.65 1019.66 1019.69 1019.75 1019.84 1019.95 1020.06 1020.17 1020.26 1020.36 1020.47 1020.59 1020.74 1020.91 1021.10 1021.30 1021.49 1021.67 1021.83 1021.97 1022.10 1022.24
1012.75 1013.22 1013.71 1014.21 1014.67 1015.07 1015.40 1015.67 1015.90 1016.12 1016.39 1016.73 1017.13 1017.60 1018.09 1018.57 1019.00 1019.33 1019.55 1019.67 1019.71 1019.70 1019.68 1019.67 1019.70 1019.76 1019.85 1019.97 1020.09 1020.21 1020.34 1020.46 1020.59 1020.74 1020.89 1021.06 1021.24 1021.43 1021.62 1021.80 1021.98 1022.16 1022.33
1012.58 1013.11 1013.67 1014.21 1014.70 1015.12 1015.47 1015.74 1015.97 1016.19 1016.43 1016.74 1017.10 1017.53 1017.99 1018.45 1018.86 1019.21 1019.46 1019.61 1019.67 1019.69 1019.67 1019.67 1019.69 1019.75 1019.85 1019.98 1020.13 1020.28 1020.43 1020.57 1020.70 1020.83 1020.97 1021.11 1021.26 1021.43 1021.61 1021.81 1022.01 1022.22 1022.42
1012.31 1012.90 1013.50 1014.09 1014.62 1015.09 1015.47 1015.77 1016.02 1016.23 1016.44 1016.69 1016.98 1017.34 1017.74 1018.15 1018.56 1018.91 1019.20 1019.41 1019.54 1019.61 1019.66 1019.70 1019.76 1019.85 1019.98 1020.14 1020.31 1020.50 1020.67 1020.83 1020.96 1021.08 1021.18 1021.29 1021.41 1021.54 1021.70 1021.88 1022.08 1022.30 1022.51
1011.93 1012.56 1013.20 1013.82 1014.41 1014.93 1015.37 1015.72 1015.99 1016.21 1016.39 1016.58 1016.79 1017.06 1017.38 1017.74 1018.12 1018.49 1018.82 1019.10 1019.33 1019.50 1019.63 1019.75 1019.88 1020.02 1020.20 1020.40 1020.61 1020.83 1021.03 1021.20 1021.34 1021.45 1021.53 1021.60 1021.67 1021.76 1021.88 1022.03 1022.21 1022.40 1022.60
1011.48 1012.10 1012.75 1013.40 1014.03 1014.62 1015.13 1015.55 1015.87 1016.11 1016.28 1016.42 1016.56 1016.74 1016.97 1017.27 1017.62 1018.00 1018.38 1018.75 1019.07 1019.36 1019.60 1019.81 1020.02 1020.22 1020.45 1020.70 1020.95 1021.21 1021.44 1021.64 1021.80 1021.90 1021.97 1022.01 1022.04 1022.09 1022.15 1022.26 1022.39 1022.54 1022.70
1010.97 1011.55 1012.18 1012.84 1013.51 1014.16 1014.75 1015.26 1015.65 1015.94 1016.12 1016.23 1016.32 1016.43 1016.59 1016.83 1017.15 1017.53 1017.96 1018.39 1018.82 1019.20 1019.54 1019.85 1020.13 1020.40 1020.67 1020.96 1021.26 1021.56 1021.83 1022.06 1022.25 1022.37 1022.44 1022.46 1022.47 1022.47 1022.50 1022.55 1022.62 1022.72 1022.83
1010.47 1010.97 1011.54 1012.18 1012.87 1013.57 1014.25 1014.85 1015.34 1015.70 1015.93 1016.06 1016.13 1016.19 1016.30 1016.49 1016.78 1017.17 1017.62 1018.11 1018.60 1019.06 1019.48 1019.85 1020.19 1020.50 1020.82 1021.14 1021.48 1021.81 1022.13 1022.41 1022.63 1022.79 1022.88 1022.91 1022.91 1022.89 1022.88 1022.89 1022.91 1022.96 1023.01
1010.05 1010.44 1010.93 1011.51 1012.19 1012.93 1013.68 1014.38 1014.97 1015.43 1015.74 1015.91 1016.00 1016.06 1016.15 1016.32 1016.58 1016.96 1017.42 1017.94 1018.46 1018.97 1019.43 1019.83 1020.20 1020.54 1020.87 1021.22 1021.58 1021.95 1022.31 1022.64 1022.92 1023.12 1023.25 1023.32 1023.33 1023.31 1023.28 1023.26 1023.25 1023.25 1023.24
1009.80 1010.06 1010.43 1010.93 1011.57 1012.31 1013.10 1013.88 1014.58 1015.14 1015.55 1015.81 1015.95 1016.05 1016.15 1016.31 1016.57 1016.93 1017.39 1017.91 1018.44 1018.95 1019.42 1019.83 1020.19 1020.54 1020.87 1021.23 1021.61 1022.01 1022.41 1022.78 1023.11 1023.37 1023.55 1023.66 1023.70 1023.70 1023.68 1023.65 1023.62 1023.58 1023.54
1009.79 1009.90 1010.13 1010.52 1011.09 1011.79 1012.60 1013.43 1014.20 1014.87 1015.38 1015.74 1015.97 1016.12 1016.26 1016.45 1016.71 1017.07 1017.52 1018.02 1018.53 1019.02 1019.47 1019.87 1020.22 1020.54 1020.87 1021.23 1021.62 1022.03 1022.46 1022.88 1023.26 1023.57 1023.80 1023.95 1024.03 1024.06 1024.05 1024.03 1023.99 1023.94 1023.88
1010.05 1010.02 1010.10 1010.36 1010.82 1011.45 1012.22 1013.06 1013.88 1014.62 1015.22 1015.68 1016.01 1016.25 1016.45 1016.68 1016.97 1017.33 1017.76 1018.24 1018.73 1019.20 1019.62 1019.99 1020.32 1020.63 1020.94 1021.29 1021.68 1022.10 1022.55 1022.99 1023.40 1023.75 1024.02 1024.21 1024.32 1024.38 1024.39 1024.38 1024.35 1024.30 1024.23
1010.58 1010.42 1010.36 1010.47 1010.80 1011.32 1012.02 1012.82 1013.64 1014.42 1015.09 1015.63 1016.05 1016.38 1016.66 1016.95 1017.27 1017.65 1018.09 1018.55 1019.02 1019.46 1019.86 1020.21 1020.52 1020.82 1021.13 1021.47 1021.85 1022.27 1022.72 1023.17 1023.59 1023.95 1024.24 1024.45 1024.59 1024.66 1024.69 1024.69 1024.66 1024.61 1024.54
1011.33 1011.06 1010.88 1010.86 1011.04 1011.44 1012.03 1012.75 1013.53 1014.30 1015.01 1015.61 1016.10 1016.51 1016.87 1017.22 1017.60 1018.00 1018.45 1018.91 1019.37 1019.81 1020.20 1020.54 1020.85 1021.15 1021.45 1021.79 1022.16 1022.57 1023.01 1023.44 1023.85 1024.20 1024.49 1024.70 1024.84 1024.92 1024.95 1024.95 1024.92 1024.86 1024.77
Thickness
5784 5783 5780 5778 5777 5776 5776 5776 5775 5774 5772 5770 5768 5766 5764 5762 5761 5759 5758 5757 5756 5755 5754 5753 5752 5751 5750 5749 5748 5746 5745 5745 5744 5743 5742 5741 5740 5739 5738 5737 5735 5734 5733
5790 5783 5779 5776 5775 5774 5773 5772 5771 5770 5768 5766 5765 5763 5761 5760 5758 5757 5756 5755 5753 5752 5751 5750 5749 5748 5747 5746 5744 5743 5742 5741 5741 5740 5739 5738 5737 5736 5734 5733 5732 5731 5730
5789 5782 5777 5774 5772 5771 5770 5769 5768 5766 5764 5763 5762 5760 5759 5757 5756 5754 5753 5752 5751 5749 5747 5746 5745 5744 5743 5742 5741 5740 5739 5739 5738 5737 5736 5735 5733 5732 5731 5729 5728 5727 5726
5787 5781 5776 5773 5771 5769 5767 5766 5764 5763 5761 5759 5758 5757 5755 5754 5753 5751 5750 5749 5747 5745 5744 5743 5742 5741 5740 5739 5738 5737 5737 5736 5734 5733 5732 5731 5730 5728 5727 5726 5724 5723 5722
5785 5779 5775 5771 5769 5767 5765 5763 5761 5760 5758 5757 5755 5754 5752 5751 5750 5748 5747 5745 5743 5741 5740 5739 5738 5738 5737 5736 5735 5734 5733 5732 5731 5730 5728 5727 5726 5724 5723 5721 5720 5719 5718
5782 5778 5774 5770 5768 5766 5764 5761 5759 5757 5756 5754 5752 5751 5749 5748 5747 5746 5744 5742 5740 5737 5736 5735 5735 5734 5734 5733 5732 5731 5730 5729 5727 5726 5725 5723 5721 5720 5718 5717 5715 5715 5714
5781 5777 5773 5770 5767 5765 5762 5760 5758 5756 5754 5752 5750 5749 5747 5746 5744 5743 5741 5739 5736 5734 5732 5732 5731 5731 5730 5729 5728 5727 5726 5725 5724 5722 5720 5718 5717 5715 5714 5712 5711 5710 5709
5780 5777 5773 5769 5766 5764 5761 5759 5757 5754 5752 5750 5749 5747 5745 5744 5742 5740 5738 5736 5733 5731 5729 5728 5727 5727 5726 5725 5724 5723 5722 5721 5719 5718 5716 5714 5712 5711 5709 5708 5706 5705 5704
5778 5775 5772 5768 5765 5763 5760 5758 5755 5753 5751 5749 5747 5745 5743 5741 5740 5738 5736 5733 5730 5727 5726 5725 5724 5723 5722 5721 5720 5719 5717 5716 5715 5713 5711 5709 5707 5706 5704 5703 5701 5700 5699
5775 5773 5771 5768 5765 5762 5760 5757 5754 5752 5750 5748 5745 5743 5741 5739 5737 5735 5733 5731 5728 5725 5723 5721 5721 5719 5718 5717 5716 5714 5713 5712 5710 5708 5707 5705 5704 5702 5700 5698 5697 5695 5694
5771 5771 5770 5768 5765 5762 5759 5757 5754 5751 5749 5746 5744 5742 5739 5737 5735 5733 5731 5728 5725 5723 5720 5718 5717 5715 5714 5713 5712 5711 5709 5708 5706 5704 5703 5701 5700 5698 5696 5695 5693 5692 5690
5769 5770 5770 5768 5765 5762 5759 5756 5754 5751 5748 5746 5743 5741 5738 5736 5733 5731 5729 5726 5724 5721 5718 5716 5714 5712 5711 5709 5708 5707 5705 5703 5701 5699 5698 5697 5696 5694 5692 5691 5689 5688 5687
5774 5772 5771 5769 5766 5762 5759 5757 5754 5751 5748 5745 5742 5740 5737 5734 5732 5729 5727 5725 5722 5719 5716 5713 5711 5710 5708 5706 5705 5704 5702 5700 5698 5696 5694 5693 5692 5690 5688 5687 5685 5684 5683
5774 5773 5771 5770 5767 5763 5760 5757 5754 5751 5747 5745 5742 5740 5737 5733 5731 5728 5726 5723 5720 5717 5714 5711 5708 5707 5706 5704 5703 5701 5699 5697 5695 5693 5691 5689 5687 5686 5684 5683 5681 5680 5678
5775 5774 5772 5769 5767 5764 5760 5757 5754 5751 5748 5745 5742 5739 5736 5733 5730 5727 5725 5722 5719 5716 5713 5710 5708 5706 5704 5702 5700 5698 5696 5694 5691 5689 5687 5685 5683 5682 5680 5678 5676 5675 5673
5776 5774 5773 5769 5767 5764 5760 5757 5754 5751 5748 5745 5742 5739 5736 5733 5730 5727 5724 5721 5718 5715 5713 5710 5707 5704 5701 5700 5697 5695 5693 5691 5688 5686 5684 5682 5680 5677 5675 5673 5671 5669 5667
5778 5776 5774 5771 5767 5764 5760 5757 5754 5751 5747 5744 5741 5739 5736 5733 5730 5727 5723 5720 5717 5713 5711 5708 5705 5702 5699 5696 5693 5691 5689 5687 5685 5682 5680 5678 5675 5672 5670 5668 5665 5663 5660
5779 5776 5775 5774 5769 5765 5761 5757 5754 5751 5747 5743 5740 5738 5735 5732 5729 5726 5722 5719 5715 5712 5709 5706 5703 5699 5695 5692 5689 5686 5684 5682 5679 5677 5674 5672 5670 5667 5664 5661 5659 5656 5654
5780 5777 5774 5773 5770 5766 5761 5757 5753 5750 5746 5743 5740 5737 5734 5730 5727 5724 5720 5716 5713 5709 5706 5703 5699 5695 5690 5687 5684 5681 5679 5676 5674 5672 5669 5666 5664 5661 5658 5655 5653 5650 5647
5778 5776 5774 5771 5769 5765 5760 5756 5752 5747 5742 5739 5737 5734 5731 5728 5724 5721 5717 5713 5709 5705 5701 5698 5694 5690 5685 5682 5679 5674 5671 5669 5666 5664 5662 5660 5657 5654 5651 5648 5646 5644 5641
5773 5773 5773 5771 5769 5764 5759 5753 5748 5744 5739 5735 5733 5731 5728 5724 5720 5716 5712 5708 5704 5700 5696 5692 5687 5683 5677 5675 5671 5665 5662 5660 5658 5655 5654 5652 5649 5647 5644 5641 5639 5636 5633
5772 5772 5771 5770 5769 5765 5761 5755 5748 5741 5735 5731 5728 5726 5723 5719 5715 5711 5707 5702 5698 5694 5689 5686 5682 5676 5671 5668 5665 5658 5653 5650 5648 5646 5645 5643 5640 5638 5635 5632 5630 5627 5625
5766 5768 5769 5768 5766 5763 5758 5751 5743 5734 5729 5726 5722 5718 5716 5713 5709 5705 5701 5695 5691 5689 5684 5680 5676 5671 5665 5659 5658 5655 5649 5644 5638 5635 5633 5631 5629 5627 5624 5622 5619 5617 5614
5762 5765 5765 5765 5762 5758 5753 5747 5740 5732 5726 5723 5718 5713 5709 5705 5701 5697 5693 5689 5685 5681 5677 5673 5669 5666 5661 5654 5649 5645 5643 5640 5634 5626 5623 5620 5618 5615 5611 5609 5606 5604 5601
5754 5757 5759 5757 5755 5752 5747 5742 5734 5727 5722 5717 5710 5703 5699 5694 5691 5688 5685 5681 5676 5672 5668 5664 5660 5657 5654 5648 5643 5637 5633 5628 5625 5622 5614 5609 5605 5602 5599 5595 5593 5590 5586
5744 5747 5749 5748 5745 5742 5738 5733 5726 5720 5715 5707 5700 5693 5688 5683 5679 5677 5673 5670 5666 5662 5658 5654 5649 5646 5643 5638 5633 5629 5625 5621 5615 5610 5605 5598 5594 5589 5585 5582 5579 5575 5571